Theta_e
299 299 299 299 300 299 297 296 296 297 298 300 302 305 308 308 309 309 304 302 305 309 307 305 305 305 304 305 305 305 306 307 306 305 306 307 308 308 309 309 309 310 310 309 308 307 307 309 311 312 312 312 312 312 311 311 310 309 310 309 309 309 309 309 309 307 306 306 306 306 306 306 306 306 306 305 305 304 304 304 304 304 304 305 306 306 306
299 299 299 299 300 299 297 296 296 297 298 299 302 307 306 306 307 307 304 303 307 308 305 304 305 305 306 307 307 306 306 306 304 304 305 306 307 308 309 309 308 308 309 308 307 306 308 310 311 311 312 312 312 312 311 310 309 309 309 309 309 309 309 309 309 308 308 307 306 306 306 305 305 305 305 305 305 305 305 305 305 305 305 306 306 306 306
300 299 299 299 300 299 297 296 296 297 298 298 302 306 306 306 308 307 305 304 305 305 303 304 304 305 307 308 307 307 307 305 303 303 304 305 306 307 308 307 307 307 308 307 305 305 307 310 310 310 310 311 310 310 309 309 309 309 309 309 309 309 309 309 309 310 310 309 307 306 306 306 306 305 305 305 305 305 305 305 306 306 306 305 305 305 305
299 299 298 299 300 299 298 296 296 297 298 298 302 306 306 307 308 307 306 306 305 304 303 304 305 304 305 307 307 307 307 305 303 301 303 304 305 306 306 305 305 306 305 305 305 305 306 308 310 309 309 310 310 310 309 309 309 309 310 310 309 310 310 309 309 309 309 309 308 307 307 307 307 306 306 306 306 306 306 306 307 307 307 306 305 304 305
299 299 298 299 300 299 298 297 296 297 297 298 302 306 305 306 307 305 305 305 305 305 304 304 305 303 304 305 306 306 306 305 304 302 304 305 304 304 306 306 306 305 304 304 305 306 306 308 310 310 309 310 309 310 310 309 310 310 310 310 310 311 311 310 310 310 309 308 308 308 308 309 309 308 308 307 306 306 307 307 308 308 308 308 307 307 306
299 299 298 299 300 299 299 299 297 296 297 298 303 306 305 305 305 304 303 305 305 304 304 304 304 304 304 305 305 306 306 305 305 303 303 304 303 304 306 308 307 305 304 304 305 307 309 310 310 310 310 309 309 310 310 310 310 310 310 309 311 311 311 311 311 310 309 309 308 308 309 310 311 310 310 309 308 307 307 308 308 308 309 309 309 309 308
299 299 299 299 300 299 299 300 299 296 296 299 303 306 305 304 305 304 303 304 305 304 304 304 305 305 305 304 305 305 305 305 304 303 303 304 305 305 306 307 307 305 305 304 305 307 309 310 310 310 309 309 309 310 311 311 310 309 310 310 310 311 311 311 312 311 311 310 310 310 310 311 311 311 310 310 310 309 308 308 308 308 309 308 309 310 310
299 299 299 299 299 299 299 300 300 297 296 301 304 304 304 303 303 303 303 304 305 304 304 304 305 306 305 305 305 305 304 305 304 303 303 304 306 306 306 306 306 306 306 305 305 305 306 307 308 309 308 308 309 310 312 311 310 310 311 311 311 311 312 312 313 313 312 311 311 311 311 311 311 310 310 310 311 311 310 310 309 309 308 309 309 310 310
299 299 299 299 299 300 300 301 301 298 297 302 304 302 302 302 301 301 303 305 305 305 305 304 305 305 305 304 304 304 304 304 303 302 302 303 305 306 305 306 305 306 307 307 306 306 306 306 307 307 307 307 308 309 309 310 310 311 311 311 311 311 312 313 313 314 314 312 312 312 312 311 311 311 312 312 312 313 312 312 311 310 310 310 310 309 309
299 299 299 299 299 299 299 300 301 299 298 301 303 302 301 301 301 301 302 304 305 304 305 305 305 305 304 303 303 304 303 303 302 303 303 303 303 304 304 305 305 306 307 308 307 306 306 305 305 305 306 306 306 306 307 307 308 309 311 311 311 312 313 313 314 314 315 313 313 313 312 313 314 314 313 313 314 314 314 313 313 312 311 310 310 309 309
299 299 299 299 299 299 299 300 300 299 298 299 301 301 300 300 301 301 301 304 305 304 304 305 305 305 303 303 303 303 303 303 303 303 304 303 303 303 303 304 305 305 306 306 306 305 304 304 304 305 305 306 306 306 307 307 307 308 309 311 311 311 312 313 314 314 315 314 314 313 314 317 317 314 312 313 314 314 315 315 314 314 312 310 310 310 310
299 299 299 299 299 299 299 299 300 299 298 298 299 299 299 298 300 301 301 304 306 304 304 305 305 304 304 303 303 303 303 304 303 303 303 303 303 302 302 303 305 305 305 304 304 304 305 307 308 308 308 308 308 308 308 309 309 309 309 310 310 310 311 313 314 313 314 314 315 316 317 318 316 314 312 312 312 311 313 314 314 314 314 312 312 312 311
299 299 299 299 299 299 299 299 300 299 298 298 298 299 298 298 300 301 300 302 305 305 305 305 305 304 303 303 303 303 303 303 302 303 303 303 303 303 303 304 304 304 303 303 303 305 308 311 312 313 312 311 311 311 311 311 312 312 311 309 308 310 312 312 313 314 315 315 316 318 318 317 316 314 313 312 312 311 313 315 314 313 314 316 316 315 314
300 300 299 299 299 299 299 299 300 300 298 298 298 298 298 298 299 300 300 301 303 303 304 305 305 303 303 303 303 304 303 303 303 303 304 304 303 303 303 303 303 304 303 303 304 308 310 311 312 313 313 313 314 314 313 313 313 313 312 309 307 310 312 313 313 314 315 316 316 317 317 317 317 316 314 314 313 312 313 315 315 313 312 313 314 315 315
300 300 300 299 299 299 299 299 299 300 299 299 298 298 298 298 298 299 300 300 301 302 304 305 304 303 302 303 303 303 303 303 304 304 304 304 303 303 303 302 303 304 303 304 306 309 310 311 312 313 313 313 314 314 313 313 313 312 313 312 310 311 313 314 315 315 315 315 317 317 317 318 317 317 316 315 314 313 312 312 314 313 310 310 311 312 314
300 300 300 300 299 299 299 299 299 299 300 299 299 299 298 298 298 298 299 299 300 303 304 303 302 302 302 303 303 303 303 302 303 304 305 305 304 303 302 303 303 304 304 305 308 309 309 311 312 312 313 313 313 314 313 312 312 312 313 314 314 314 313 314 315 315 315 315 317 317 317 318 316 316 316 315 315 315 313 313 315 313 310 309 310 310 312
300 300 300 300 299 299 299 299 299 299 300 300 299 299 298 298 297 298 299 299 299 301 301 300 301 302 302 302 303 303 302 302 302 303 303 304 303 303 302 303 304 304 304 306 308 308 308 309 310 311 311 311 311 312 312 312 313 313 312 314 315 315 315 314 315 315 315 315 316 316 316 317 316 316 315 314 314 315 315 317 318 316 312 312 310 309 311
300 300 300 300 300 299 299 299 299 299 300 300 299 299 298 298 297 297 298 299 299 300 300 300 300 300 301 301 301 301 301 301 302 302 302 303 304 303 302 302 303 304 305 307 308 308 308 308 309 309 310 310 310 311 311 311 312 313 312 313 314 314 314 313 314 314 314 315 315 314 315 316 316 315 314 314 314 317 318 319 319 317 317 317 314 312 313
300 300 300 300 300 299 299 298 298 299 300 300 299 299 298 297 297 297 297 298 298 299 300 300 299 300 300 300 300 301 301 301 301 301 302 303 304 303 302 302 302 304 305 307 308 308 308 309 309 308 308 309 309 310 310 310 311 312 312 313 314 314 313 313 313 314 315 315 315 314 314 315 315 315 313 313 316 319 319 318 317 317 318 318 317 316 317
300 300 300 300 300 299 299 298 298 299 300 300 300 299 298 297 297 297 297 298 297 297 298 299 299 299 300 299 300 300 301 301 301 301 302 303 302 302 303 305 304 303 305 307 307 307 308 308 308 307 307 308 308 309 309 309 310 311 311 312 314 314 313 313 313 314 315 314 315 315 315 315 315 314 314 314 316 318 318 317 317 318 317 317 317 317 318
300 300 300 300 300 300 299 298 298 299 301 301 300 299 299 298 297 297 297 297 297 297 298 299 299 299 299 299 300 300 300 300 301 301 301 302 301 302 304 305 303 303 305 306 306 307 307 306 306 306 306 307 308 309 309 309 310 311 310 312 313 313 313 313 313 315 315 315 315 315 314 314 314 314 313 314 315 316 317 317 317 317 316 316 317 318 318
300 300 300 300 300 300 299 299 298 299 301 301 300 300 299 298 297 297 297 297 297 297 298 298 298 298 298 299 299 300 300 300 300 301 300 300 301 301 302 302 303 303 303 304 305 306 306 305 306 306 306 307 307 308 309 309 310 310 310 311 311 312 313 314 314 314 315 314 313 313 313 312 312 311 312 313 313 314 315 315 316 316 316 316 316 317 317
301 300 300 300 300 300 299 299 298 299 300 301 300 300 299 298 298 298 297 298 298 297 298 298 298 299 300 300 300 300 300 300 300 300 300 300 300 301 301 302 303 303 302 303 305 305 304 305 305 305 306 307 306 307 309 309 309 309 310 310 311 311 312 313 313 312 312 312 312 312 312 310 310 310 310 312 312 313 313 315 316 315 314 315 315 315 315
301 301 301 300 300 300 300 299 298 298 300 300 300 300 299 298 298 298 298 298 298 298 298 298 298 300 301 301 301 300 300 300 300 300 300 300 300 301 302 303 303 303 303 303 304 304 303 304 304 305 306 307 306 307 309 309 309 309 309 309 311 311 311 311 311 311 311 312 312 311 310 309 309 309 309 310 311 310 312 315 315 313 313 315 315 314 315
303 302 301 300 300 300 300 299 298 298 299 300 300 300 299 299 298 298 298 299 298 298 299 299 299 300 300 300 300 301 301 301 300 300 300 300 300 302 303 303 303 303 304 304 303 303 303 303 304 305 306 306 307 307 308 309 309 309 309 310 311 311 310 310 310 310 311 312 310 309 308 307 308 308 309 309 309 309 311 313 312 311 314 315 315 315 315
304 303 302 301 300 300 300 299 299 298 298 299 300 300 300 300 299 298 298 298 298 298 299 299 300 300 301 301 301 301 301 300 300 301 301 301 301 301 302 303 302 302 303 303 302 302 302 302 303 304 305 306 307 307 308 309 309 308 309 310 310 310 310 309 309 309 310 310 309 308 307 307 307 307 308 309 308 309 310 310 308 310 313 315 315 315 316
306 305 304 302 301 300 300 299 299 298 298 299 300 300 300 300 299 298 298 298 299 300 300 300 300 301 301 302 302 301 301 301 301 301 301 301 301 301 301 302 302 301 302 302 301 301 301 301 303 304 305 306 306 306 307 308 308 309 310 310 309 309 309 308 307 308 309 309 308 307 307 307 306 307 308 308 308 308 308 307 307 309 312 314 314 315 316
306 306 305 304 302 301 300 300 299 298 298 299 300 300 300 300 300 299 299 298 299 300 300 299 299 300 301 302 302 301 301 301 301 301 302 302 301 301 302 302 301 301 301 301 302 302 302 302 304 304 304 305 305 306 308 308 308 310 311 309 308 308 307 307 307 307 307 307 306 305 305 305 305 306 307 308 308 307 307 307 308 309 310 312 314 315 316
306 306 306 305 304 302 301 300 299 298 298 299 300 300 300 300 300 299 299 299 298 299 298 298 298 300 302 303 303 302 302 301 301 302 302 302 302 302 302 302 302 301 301 301 301 301 302 303 304 304 305 305 305 307 308 308 309 310 309 307 306 306 305 305 305 305 305 305 304 304 303 303 304 305 306 307 307 306 306 307 307 306 307 311 314 316 317
306 306 306 306 305 304 302 300 299 298 298 299 300 299 299 300 299 299 299 299 299 298 298 298 299 300 301 302 303 303 302 302 302 302 302 302 303 303 303 302 302 302 301 301 301 301 302 303 303 304 305 305 305 306 308 308 309 310 307 305 305 305 304 303 304 304 304 304 302 302 302 303 304 305 305 306 306 306 306 306 306 306 307 310 314 316 316
306 306 306 306 305 304 302 301 299 298 299 300 299 299 299 300 300 298 298 299 299 298 297 297 298 300 301 302 303 303 303 302 302 303 303 303 303 303 303 303 302 302 301 301 301 301 302 303 303 305 306 305 304 306 308 309 310 309 306 304 304 304 303 302 302 302 302 302 301 300 301 302 303 304 304 304 305 306 305 305 305 307 307 309 313 315 314
307 306 306 305 305 303 302 301 299 298 299 300 299 299 300 300 299 298 298 298 298 298 297 297 299 300 301 303 304 303 302 302 303 304 304 304 304 304 303 303 303 303 302 302 301 301 302 303 303 305 307 306 305 306 308 309 307 306 303 302 303 302 302 301 301 301 301 300 300 300 302 302 302 302 303 303 304 305 304 304 305 307 308 310 312 313 313
307 306 305 305 304 303 302 301 299 298 299 300 300 299 299 299 299 299 298 297 298 298 297 298 299 301 301 303 304 303 302 303 305 305 305 305 305 304 304 303 303 303 303 302 302 303 303 304 304 305 307 307 305 307 309 306 303 302 301 301 301 301 300 300 300 300 300 299 299 300 301 301 301 302 303 303 304 304 304 304 305 306 306 308 309 310 311
307 306 305 304 304 303 302 301 299 298 299 299 299 299 299 299 299 299 298 298 298 298 297 297 299 301 302 303 304 303 302 303 305 305 305 306 306 305 304 303 303 303 303 303 303 303 304 305 305 306 307 307 305 307 307 304 301 300 300 300 300 299 299 299 299 299 298 298 298 299 299 300 301 301 302 303 303 303 304 304 304 304 305 306 307 307 308
306 305 305 304 303 302 301 300 299 299 299 299 299 299 299 299 299 299 298 298 298 298 297 297 298 300 302 303 304 304 302 303 305 304 304 305 306 305 304 304 303 304 304 303 304 304 305 305 306 306 307 306 305 304 302 300 299 299 299 299 298 298 298 298 298 298 297 297 298 298 298 299 299 300 300 301 301 301 302 302 302 302 303 304 304 305 306
306 305 304 303 302 301 300 300 299 299 299 299 299 299 298 298 299 298 298 298 298 298 299 299 299 301 302 303 304 303 302 304 305 304 304 305 305 304 304 304 304 305 305 304 304 305 305 306 307 306 305 305 303 300 299 298 298 298 298 298 297 296 296 297 297 297 297 298 298 299 298 297 298 298 299 299 299 299 300 300 301 301 301 302 303 303 304
305 304 303 302 301 300 299 299 299 299 298 299 299 299 298 299 299 298 298 298 298 298 299 299 300 301 302 302 302 302 302 304 304 304 304 304 303 303 303 303 304 305 304 304 305 305 306 306 306 305 304 303 300 298 297 297 297 297 297 297 296 296 296 296 296 296 297 298 298 298 297 296 296 297 297 298 298 298 299 299 300 300 301 301 301 302 303
304 303 302 301 299 298 297 298 298 298 298 298 299 299 299 298 297 297 298 298 298 298 298 298 300 301 301 302 302 302 303 304 304 304 304 303 302 303 303 303 303 303 303 303 305 306 306 306 305 303 302 301 299 297 297 296 296 296 296 296 296 295 295 295 296 296 296 297 297 296 296 296 296 296 296 297 297 298 298 298 299 300 300 300 300 301 303
303 301 300 299 298 297 297 297 297 297 298 298 299 299 298 297 298 299 298 297 297 298 298 298 300 301 301 301 302 303 303 303 303 304 304 303 303 303 302 302 302 302 301 303 304 305 305 306 305 303 302 300 298 297 297 296 296 296 296 296 296 296 295 295 296 296 296 296 296 296 296 296 295 295 296 296 297 297 298 298 299 300 300 300 301 301 302
301 300 298 298 297 297 297 298 298 298 298 298 298 298 298 298 299 300 299 299 299 300 300 300 301 301 301 301 303 303 303 302 303 303 303 303 303 302 302 302 302 301 301 302 303 303 304 305 305 305 302 299 298 297 297 296 296 296 295 296 296 296 295 296 296 296 296 296 296 296 296 296 296 296 296 296 296 296 297 298 299 300 300 300 300 301 301
300 299 297 297 296 297 298 298 298 297 297 297 298 299 299 299 299 299 299 301 302 301 300 301 301 301 301 301 302 303 303 303 303 303 302 303 303 302 302 302 302 301 301 302 303 304 304 304 305 305 301 298 297 297 297 296 296 295 295 296 296 295 295 296 296 296 296 296 296 296 296 296 296 296 296 296 296 296 297 297 298 299 299 299 299 300 300
299 299 298 297 296 297 298 298 297 297 297 297 299 300 301 300 300 299 299 301 302 302 301 302 302 303 303 302 302 303 303 303 303 302 302 303 302 301 301 302 301 301 302 303 303 304 304 305 306 303 300 298 297 297 296 296 295 294 295 296 295 295 295 296 296 296 296 296 296 296 296 296 296 296 296 296 297 297 297 297 297 297 297 297 298 299 299
299 298 297 296 296 296 297 297 297 297 299 299 300 302 302 301 301 301 301 301 301 301 302 302 302 303 303 303 303 303 303 302 302 301 302 302 302 301 301 301 301 301 302 302 302 303 303 304 304 301 298 297 297 296 295 295 294 294 294 295 295 294 294 295 295 295 295 295 295 296 295 295 295 295 295 296 296 296 296 296 296 295 295 296 297 297 297
298 297 296 296 296 297 298 299 298 299 301 301 301 302 303 303 302 302 302 302 302 302 302 303 303 303 303 303 303 303 302 301 301 301 301 301 301 300 300 301 301 301 302 302 302 302 304 303 301 299 297 297 296 295 295 294 294 294 294 295 295 294 294 294 294 294 294 294 295 295 295 295 295 295 295 295 295 295 296 295 294 294 294 295 295 296 296
297 296 297 298 298 298 300 301 300 300 302 302 302 302 304 304 303 303 304 303 303 302 302 303 303 303 303 303 302 301 301 301 300 301 301 301 301 301 301 301 301 301 301 301 301 303 304 302 299 298 297 296 296 295 294 294 294 293 293 294 294 294 294 294 294 294 294 294 294 294 295 295 294 294 294 295 295 295 295 294 294 293 293 294 294 294 294
297 297 298 300 300 299 300 302 301 301 302 302 302 302 304 304 305 304 303 302 302 302 302 303 303 303 302 302 301 301 301 300 301 301 301 300 300 301 301 300 300 300 301 302 302 303 303 300 298 296 296 295 294 294 293 293 293 293 293 293 293 294 294 294 294 294 294 294 294 294 294 294 294 294 294 294 294 294 294 294 293 293 293 293 293 293 293
297 297 298 300 301 300 300 302 302 302 302 302 302 303 303 304 303 303 302 301 302 302 302 302 302 302 302 301 301 301 300 300 300 301 300 300 300 300 300 300 300 301 301 302 302 302 301 299 297 296 295 294 294 293 293 293 293 293 293 293 293 293 294 294 294 294 293 293 293 293 293 293 293 293 293 293 293 293 293 293 292 292 292 292 291 292 291
297 297 298 301 302 301 301 302 302 302 301 301 301 302 302 302 301 301 301 301 301 301 301 301 301 301 301 301 300 301 301 300 300 300 300 300 300 301 301 301 301 301 301 302 302 301 299 297 296 295 294 294 293 293 293 293 293 292 292 292 292 292 293 294 293 293 292 292 293 293 292 292 293 293 293 293 293 293 293 292 292 292 291 291 291 291 290
297 297 298 300 301 301 301 301 302 302 301 300 300 301 301 301 301 301 301 301 301 301 301 301 301 301 301 300 300 300 300 300 300 300 300 300 300 301 301 301 301 301 301 301 300 299 297 296 295 294 294 293 293 293 292 292 292 292 292 292 292 292 292 293 292 292 292 292 292 292 292 292 292 292 292 292 292 292 292 292 291 291 291 290 290 290 290
297 297 298 299 300 300 300 301 302 302 301 299 299 300 300 301 301 301 301 301 301 301 300 300 300 300 300 300 299 300 300 300 300 300 299 300 300 300 301 301 300 300 300 299 298 297 296 295 295 294 294 293 292 292 292 292 292 293 292 292 292 292 292 292 292 291 291 291 291 291 291 291 291 291 291 291 291 292 292 291 291 290 290 290 289 289 289
297 297 298 299 300 300 300 300 302 303 302 300 300 300 300 300 301 301 301 301 300 300 300 300 300 299 299 299 299 299 299 299 299 299 299 299 300 300 300 300 300 299 299 298 297 296 296 295 294 294 293 292 292 292 292 292 292 292 292 292 292 292 291 291 291 291 291 291 291 291 291 291 290 290 290 290 290 291 291 291 291 290 290 289 289 288 289
298 298 299 299 299 299 299 300 301 302 301 301 301 300 300 301 301 301 300 300 300 300 300 300 299 299 299 299 299 299 299 299 299 299 299 299 299 299 299 299 299 298 297 297 296 295 295 294 293 293 292 292 292 292 292 292 292 292 292 291 291 291 291 291 291 290 290 290 290 290 290 290 290 289 289 289 290 290 290 290 290 290 289 289 288 288 288
Wind_Speed
21 21 21 22 24 27 29 27 27 30 30 26 19 11 4 3 3 2 10 18 11 4 1 4 2 3 3 2 2 2 3 3 4 4 2 2 3 3 3 4 4 4 4 7 8 8 6 7 7 8 8 8 6 5 6 7 6 3 4 3 1 2 3 6 8 8 8 7 4 5 8 8 9 8 8 8 9 10 10 10 9 9 10 10 10 11 10
20 21 20 21 24 27 28 26 26 27 26 23 17 9 3 3 2 0 9 15 7 2 3 3 2 4 3 1 1 1 3 3 5 5 3 2 2 4 2 1 4 5 5 6 7 6 4 6 8 8 8 7 5 5 4 5 5 3 2 2 1 3 3 5 6 8 5 2 2 3 5 6 7 8 9 10 12 13 12 11 10 10 13 13 11 10 10
19 21 20 20 23 27 28 25 25 24 22 19 12 5 3 3 2 2 5 11 7 3 4 4 2 4 3 1 2 2 1 1 4 6 6 4 3 4 2 1 4 7 5 6 8 7 6 6 8 7 8 8 7 6 5 6 7 6 3 2 3 4 5 5 6 7 7 5 4 3 2 5 6 8 11 12 14 15 12 9 9 10 13 15 12 11 12
19 20 19 19 22 26 27 25 25 23 20 18 11 5 4 3 2 2 2 5 6 4 4 4 3 3 4 2 2 4 4 1 2 4 5 2 2 5 4 1 3 4 3 7 8 7 8 9 9 8 9 10 8 8 9 10 9 6 6 6 5 4 6 7 7 8 8 9 10 9 8 9 10 12 14 14 14 15 13 9 10 11 11 13 15 15 17
18 19 18 18 21 25 26 25 25 22 18 16 10 4 3 2 2 4 4 2 3 3 3 5 4 2 3 3 3 5 7 5 2 1 2 1 2 5 4 3 2 1 3 6 6 5 7 9 10 10 10 10 11 12 12 9 7 6 7 8 5 5 7 9 10 12 13 13 13 12 11 12 14 16 18 17 17 17 15 13 14 13 11 12 15 17 19
17 18 17 17 19 23 25 25 26 23 17 14 9 3 2 3 0 2 2 3 3 3 4 6 4 2 2 2 3 5 8 7 5 2 2 3 4 4 3 4 3 1 2 4 5 7 8 8 8 9 10 11 13 12 10 5 4 8 8 8 5 6 9 11 12 15 16 16 15 14 12 12 13 16 19 20 20 20 19 18 18 16 14 15 16 17 19
15 16 16 16 17 21 24 24 26 25 17 11 8 4 2 2 1 1 0 2 3 3 4 6 5 2 2 2 1 5 8 7 5 3 3 5 4 3 3 4 3 2 3 4 5 7 8 8 8 10 13 13 11 10 7 1 5 6 7 7 5 5 8 9 10 14 18 17 15 16 16 15 15 18 20 20 21 22 21 21 21 21 22 22 21 22 22
14 15 15 15 15 18 21 22 25 26 19 9 6 6 4 2 2 2 2 2 2 2 3 5 4 1 1 2 2 4 7 7 7 5 5 6 3 3 5 7 6 8 8 6 8 9 8 11 12 13 15 13 8 6 6 3 1 4 6 6 6 6 7 8 6 10 15 14 12 14 16 17 18 20 21 20 21 22 21 20 20 20 22 24 23 23 22
13 14 14 14 14 15 18 19 22 25 20 9 5 6 5 2 2 2 4 2 1 2 2 3 4 1 1 3 4 4 5 6 9 8 6 7 7 5 7 10 9 10 9 8 11 13 13 15 17 16 15 14 9 6 7 8 8 7 7 6 6 6 8 9 7 9 12 9 8 10 12 15 18 19 19 18 17 17 16 17 18 18 21 22 20 19 17
13 13 13 14 14 14 16 17 20 23 19 10 5 5 4 2 1 0 4 2 1 1 2 2 3 2 3 3 4 6 7 6 8 7 2 4 7 7 8 10 9 9 10 9 9 11 14 17 18 16 14 15 14 11 12 14 12 10 9 8 7 6 7 7 7 9 11 8 5 4 6 9 11 9 9 11 12 14 16 17 18 20 19 17 15 15 16
12 12 12 13 13 13 14 15 17 20 17 10 6 5 5 3 1 1 4 3 1 1 2 2 2 2 3 5 6 7 9 7 6 6 3 4 6 7 8 10 8 7 9 11 12 14 18 20 19 16 14 16 16 13 14 16 14 11 9 8 7 8 9 8 5 6 11 11 6 3 5 6 3 1 5 9 11 15 17 17 18 18 17 15 16 17 18
11 12 12 12 12 11 13 13 13 17 15 9 6 5 4 3 3 2 3 4 2 1 2 2 2 2 5 7 8 8 10 10 8 8 9 10 10 10 9 10 9 7 8 13 16 17 18 18 16 13 13 14 13 12 13 15 13 9 8 8 8 8 9 8 4 4 9 12 8 5 5 3 0 1 5 8 10 11 14 16 17 17 17 17 19 21 21
11 11 12 12 11 10 11 11 11 14 14 9 6 5 4 3 3 2 2 4 4 2 4 3 2 4 7 8 9 9 10 11 11 10 11 12 12 11 9 8 9 10 12 16 18 16 14 11 8 7 9 9 8 8 10 11 8 5 6 9 8 8 8 6 4 4 7 9 7 6 5 2 1 2 4 6 7 8 9 11 12 12 13 16 17 19 20
11 11 11 11 10 9 9 9 9 11 12 10 6 5 4 3 2 2 2 4 4 5 5 4 2 4 8 9 10 9 8 9 9 9 9 9 9 10 8 7 10 12 13 13 13 10 7 6 6 4 3 3 4 4 3 2 1 2 4 9 9 8 6 4 3 4 5 7 8 8 8 3 1 2 4 4 6 6 6 7 6 5 7 12 15 17 18
10 10 10 10 10 8 8 8 8 8 9 8 6 5 5 2 2 2 2 3 6 5 3 2 5 7 9 9 9 8 7 6 6 8 7 6 7 8 7 8 11 12 11 8 7 6 5 5 6 5 4 4 3 3 2 2 1 2 4 7 10 8 6 4 3 3 4 8 8 7 8 6 5 6 6 4 8 10 8 7 6 3 5 10 12 14 16
10 10 10 10 9 8 7 7 7 7 7 6 4 4 4 2 2 2 2 3 4 3 1 4 5 6 7 7 7 7 7 6 6 7 4 3 5 7 7 9 10 10 8 6 5 5 4 4 5 5 4 5 6 5 5 5 4 4 3 6 9 8 6 5 5 4 5 8 7 7 6 4 7 13 14 14 15 11 5 5 4 4 8 11 11 11 14
10 10 10 10 9 8 7 6 6 6 6 5 4 3 4 4 2 2 3 3 3 5 5 6 5 5 5 5 5 6 6 5 6 5 4 4 8 8 8 9 7 6 6 6 4 4 4 3 4 4 3 4 6 6 5 6 7 7 6 2 4 3 3 4 4 5 7 9 7 6 4 3 9 17 20 21 20 11 2 3 5 3 6 10 11 13 15
11 10 10 10 9 8 7 6 6 5 6 6 4 3 4 5 4 4 4 3 4 5 4 3 4 5 5 6 6 7 6 5 5 4 6 7 6 7 8 9 5 3 4 5 4 3 3 3 3 4 3 3 5 5 5 6 7 8 9 8 5 5 5 5 6 8 10 9 8 7 4 3 8 18 22 22 17 9 6 9 11 13 14 9 6 10 13
11 11 10 10 9 8 7 7 6 6 6 6 5 4 4 5 5 5 4 4 4 4 4 6 7 8 7 6 7 6 5 5 5 5 7 5 4 8 9 5 1 2 4 4 4 3 3 2 2 3 4 4 5 5 5 6 6 6 10 9 6 6 6 6 7 9 9 8 9 9 5 2 10 20 20 15 10 8 9 11 12 15 17 15 10 10 11
11 11 10 9 9 9 8 7 6 6 7 7 5 4 5 6 5 6 6 5 5 7 10 11 10 10 9 8 9 7 5 6 5 5 7 6 6 9 7 2 1 3 4 3 3 2 3 3 3 3 3 4 5 4 5 6 4 4 8 8 5 4 6 6 8 7 8 8 9 8 6 7 16 20 14 8 8 9 10 12 13 14 16 15 13 12 12
11 10 10 9 9 9 8 7 7 6 6 7 5 5 6 5 4 6 7 7 6 5 5 6 8 12 14 14 14 13 10 10 9 7 7 7 6 6 4 2 3 4 3 3 3 1 2 3 3 3 3 4 4 4 6 7 3 1 4 6 4 3 4 6 6 4 5 7 7 6 8 11 15 13 9 10 13 11 12 14 14 13 14 14 12 13 14
11 10 9 9 9 10 9 8 8 7 7 7 6 5 6 6 5 5 6 9 10 9 11 16 19 22 23 23 21 19 18 17 16 12 9 7 5 5 5 5 5 3 2 3 3 2 2 3 3 4 4 3 4 5 7 6 4 3 5 5 4 5 4 5 5 5 4 5 7 9 10 13 14 11 11 15 18 16 15 16 13 12 13 13 12 13 16
11 11 10 10 10 10 10 9 8 8 8 8 7 6 6 6 5 5 6 9 11 13 18 23 22 19 19 18 16 17 18 19 19 17 13 9 6 5 5 5 3 1 1 3 3 3 3 3 3 4 4 4 4 6 6 5 5 6 6 5 4 6 6 6 7 8 8 5 7 10 13 16 17 15 13 15 17 16 15 14 13 13 13 12 12 14 15
12 11 10 10 11 11 10 10 9 9 9 9 9 8 7 6 5 5 7 8 6 7 10 11 9 9 9 7 5 8 13 16 17 17 15 12 8 5 3 2 2 2 1 2 3 3 3 3 3 4 4 5 5 5 5 5 4 6 7 5 3 6 9 8 8 10 10 7 7 13 17 19 19 17 16 18 19 18 16 13 13 14 15 14 14 14 15
12 12 11 11 12 11 11 11 10 10 10 10 10 8 7 6 5 5 6 6 5 5 5 4 5 7 7 6 6 9 10 12 14 14 16 17 16 10 3 2 1 3 3 2 2 4 4 4 4 4 5 5 4 4 5 5 5 7 7 5 4 6 9 10 9 10 10 9 12 18 19 18 16 14 15 17 20 21 19 16 15 17 16 16 16 15 13
14 13 13 12 12 12 12 12 11 11 11 11 11 10 9 8 6 6 7 7 6 5 5 5 7 8 9 12 14 13 10 10 12 14 16 19 20 18 11 6 4 5 4 3 4 5 5 5 5 5 5 4 3 5 6 6 6 8 6 4 5 6 8 8 9 11 10 9 14 19 17 14 14 16 18 19 20 20 19 19 20 21 19 18 18 17 14
16 15 15 14 14 13 13 12 11 11 11 12 12 12 12 10 8 9 10 7 4 4 5 5 6 10 16 19 18 11 7 9 11 13 15 17 19 19 16 12 9 7 6 5 4 4 4 5 5 6 6 5 5 6 7 6 6 7 4 4 6 6 6 6 8 8 8 10 15 17 13 11 14 19 22 22 22 20 19 20 21 22 20 18 18 17 16
17 17 17 17 16 14 14 13 12 12 12 12 11 12 13 13 12 13 13 12 9 6 5 6 9 14 17 16 12 8 6 9 10 11 14 16 17 17 16 13 10 7 6 6 5 4 5 6 5 5 4 4 5 6 5 5 6 4 1 5 6 5 5 6 6 6 9 13 16 15 12 13 16 20 22 22 21 20 21 21 20 20 19 18 17 17 16
18 18 18 18 17 17 15 14 13 12 11 10 9 10 12 12 10 10 11 13 13 10 6 6 8 10 10 10 10 8 6 8 10 11 12 13 15 16 15 13 10 7 6 6 5 5 6 6 6 5 4 3 4 5 5 6 5 1 4 6 7 5 6 7 7 8 12 14 15 15 15 16 18 21 22 20 19 20 22 21 19 19 19 17 16 16 14
18 18 19 18 18 18 17 16 14 12 11 10 7 6 7 6 4 4 6 9 11 8 4 3 5 5 7 9 9 7 6 7 9 11 12 13 13 14 14 11 9 7 6 6 5 5 6 5 5 6 6 5 4 4 4 6 4 2 7 9 9 7 8 8 9 10 11 12 14 17 17 17 17 17 17 17 19 20 20 19 19 19 20 18 16 15 14
20 20 20 19 19 19 18 16 14 12 12 10 7 2 2 1 3 3 2 6 8 6 3 3 5 6 5 6 6 7 9 9 8 9 10 11 10 11 12 10 8 8 7 6 5 5 6 5 4 5 5 7 5 4 5 6 4 3 8 11 10 9 10 10 9 10 11 12 16 18 15 13 13 14 15 18 22 22 19 18 20 21 21 19 16 13 15
22 21 20 19 19 19 18 16 14 14 15 15 12 7 4 2 1 0 0 4 6 5 3 3 5 4 3 3 5 8 10 9 6 5 6 7 7 8 10 8 7 7 7 6 5 5 5 5 5 6 4 6 6 5 5 3 3 6 10 11 10 9 11 11 11 10 10 11 15 17 14 13 15 17 18 21 22 21 19 19 21 22 21 19 17 18 20
23 22 19 17 17 18 18 17 15 14 15 15 15 15 13 12 11 9 5 5 5 4 3 2 4 3 3 5 5 3 4 5 4 3 4 6 6 5 6 6 5 6 7 6 4 4 4 4 5 5 3 4 3 4 1 2 4 8 10 10 10 11 12 12 10 10 11 12 13 13 14 17 19 19 19 19 19 20 20 20 20 22 20 18 18 21 21
24 21 18 15 16 18 19 16 14 14 13 13 15 16 17 18 17 14 11 8 4 3 2 2 4 4 4 6 3 1 3 4 2 1 0 5 7 4 4 5 4 4 7 7 5 4 4 4 4 4 2 1 1 2 1 3 8 10 9 10 11 12 12 11 9 10 12 13 13 12 13 17 18 18 18 18 19 21 21 20 20 22 20 18 18 19 19
22 18 16 14 15 17 17 14 14 14 12 12 12 12 13 14 14 14 14 11 5 2 2 3 4 3 5 6 2 2 3 4 2 2 2 3 6 4 3 4 4 3 5 5 4 5 4 3 3 3 1 1 2 2 2 7 11 11 10 10 12 13 13 12 11 12 14 14 14 13 14 16 17 18 18 18 20 21 21 20 20 21 19 18 18 18 17
18 15 13 13 15 17 14 13 14 13 10 9 11 11 11 9 8 11 16 15 9 4 2 2 3 3 4 5 3 3 5 4 2 1 2 2 3 3 3 4 4 2 4 3 5 5 3 2 1 1 1 2 2 2 4 8 11 11 11 11 11 11 12 13 14 16 17 16 14 14 14 16 17 17 17 17 18 20 21 21 22 22 20 20 20 19 17
15 13 13 15 16 13 9 9 12 12 10 9 7 7 7 4 3 6 12 13 11 7 4 3 5 5 5 4 3 3 3 2 2 2 2 1 1 1 3 4 3 2 3 5 5 3 1 1 1 1 2 3 2 3 5 6 8 9 9 10 10 10 11 12 14 17 18 17 15 15 15 17 17 16 17 18 19 20 21 20 19 20 20 19 18 17 17
15 17 20 18 12 5 4 6 9 11 12 9 5 3 3 3 2 3 4 4 5 6 4 4 6 6 5 5 4 2 2 2 3 2 1 1 2 1 3 2 1 1 3 5 2 1 1 1 3 3 2 4 3 4 6 5 6 6 7 8 9 10 11 11 13 16 17 16 16 17 18 19 19 18 18 19 19 19 18 17 16 16 17 17 17 17 17
23 23 18 12 6 2 3 5 8 10 11 10 6 3 2 2 2 2 2 2 3 4 4 5 7 7 7 7 6 4 2 3 4 3 2 2 2 1 1 2 1 1 5 4 1 2 3 2 3 4 3 3 3 5 5 5 5 6 7 8 9 10 11 11 11 13 13 12 14 15 15 16 17 17 16 17 17 17 17 16 16 17 18 18 19 19 17
26 20 11 5 4 6 7 9 10 10 9 6 3 1 2 3 3 2 2 3 3 3 4 5 5 6 7 9 7 4 4 3 4 4 3 2 1 1 3 2 1 2 5 4 1 1 3 3 2 3 3 3 3 5 5 6 6 6 7 8 10 12 12 12 12 14 14 13 13 14 14 15 16 16 15 16 16 17 16 16 17 20 22 22 22 21 20
20 14 9 8 11 13 13 12 10 7 4 2 2 2 2 3 3 2 2 4 5 4 4 5 5 5 7 9 7 4 4 3 2 3 3 2 1 1 3 3 1 2 5 3 1 0 3 4 2 2 2 3 3 5 6 6 7 7 8 9 11 13 14 13 14 15 15 13 12 13 16 18 17 17 17 17 16 15 15 15 17 21 23 23 22 22 23
16 16 17 18 17 15 12 8 4 2 1 1 2 3 3 3 3 3 3 4 4 2 3 5 5 3 4 6 6 4 2 2 1 2 3 2 1 2 4 3 2 3 3 1 1 2 5 4 2 2 3 3 4 5 6 7 7 8 9 10 11 13 14 14 14 15 15 15 14 14 16 18 18 18 19 19 18 17 17 17 18 21 23 23 22 22 23
19 22 21 17 11 8 5 3 2 2 2 2 3 4 4 3 4 4 3 3 3 2 3 5 3 2 2 4 4 3 1 1 2 3 3 2 1 2 3 3 3 3 2 1 2 5 5 3 0 3 3 2 4 5 6 7 7 7 8 9 11 13 14 14 14 15 16 16 16 16 17 17 18 19 19 20 20 20 20 19 19 21 23 23 21 21 22
22 17 10 6 3 3 3 3 3 3 4 4 4 5 5 5 5 5 4 3 3 4 4 5 5 4 4 4 3 3 2 2 2 3 3 2 2 2 3 3 2 2 2 3 4 4 2 1 2 3 2 2 3 5 6 7 7 7 8 10 11 13 14 14 14 14 14 15 16 17 17 17 18 19 19 20 20 20 20 20 21 22 23 22 20 20 22
14 5 2 3 3 3 3 3 3 3 5 6 5 6 6 5 5 6 5 3 3 4 5 5 5 4 4 3 2 2 2 2 2 3 3 3 3 4 4 4 3 3 3 4 5 3 1 3 3 2 2 3 4 5 6 6 7 8 9 10 11 12 13 14 13 13 13 15 17 17 17 17 18 18 18 19 20 20 20 20 22 23 23 21 20 20 22
4 1 3 4 3 3 3 3 4 4 4 4 5 6 6 4 4 3 3 3 3 3 4 4 4 4 4 3 1 1 2 2 3 3 2 3 4 4 3 3 3 4 4 4 5 3 1 3 3 1 2 4 5 5 6 6 7 7 8 9 10 11 13 14 14 14 14 15 16 16 16 17 18 18 18 19 19 19 19 20 21 22 21 20 19 20 21
2 2 2 2 3 4 4 4 4 3 2 3 4 5 5 4 3 2 2 3 2 3 3 3 2 2 2 2 2 2 2 2 3 3 2 3 4 4 2 3 4 4 4 5 5 1 2 3 2 1 2 4 4 5 6 6 6 8 9 9 10 11 13 14 14 15 16 17 17 16 16 17 18 18 18 18 18 18 19 20 21 21 20 20 19 19 20
3 3 2 2 3 4 4 4 3 2 1 2 3 4 4 4 3 3 3 3 3 4 4 4 3 3 2 2 2 3 2 2 3 3 2 2 3 3 2 4 4 3 3 4 3 1 3 2 1 1 2 3 4 5 6 6 7 8 9 9 9 11 12 13 14 15 17 17 16 16 16 17 17 18 18 18 18 18 19 19 20 20 20 20 20 20 20
3 3 2 2 2 2 3 4 4 3 3 3 2 3 4 5 4 4 4 4 3 3 3 2 2 3 3 2 2 3 3 2 2 2 2 2 3 3 2 3 4 3 2 1 1 2 2 1 1 2 3 4 5 5 6 7 7 8 9 9 10 11 12 13 14 15 16 16 16 16 17 16 16 16 17 18 18 18 17 18 19 19 19 20 20 19 20
1 2 1 2 3 3 3 5 6 6 5 4 3 4 5 5 5 5 4 4 4 4 3 2 2 2 2 1 2 3 3 2 3 3 3 4 3 2 2 4 5 3 0 1 1 1 1 1 2 3 3 4 5 6 6 6 7 8 9 10 11 11 12 13 14 15 16 16 16 16 16 16 15 16 16 17 18 18 17 16 17 18 19 19 19 19 19
2 2 2 2 3 3 4 5 6 7 6 6 6 6 6 6 6 6 5 4 5 5 4 4 3 2 2 3 3 2 1 1 2 4 4 3 2 3 4 5 3 1 1 0 0 1 2 2 2 3 3 4 5 5 5 6 7 8 9 10 11 11 12 13 14 14 15 15 15 16 16 15 15 16 15 16 17 17 15 15 16 18 18 18 18 18 18
2 2 2 1 1 2 3 3 3 4 5 5 6 6 6 6 5 6 5 5 5 5 4 3 3 2 3 3 2 1 1 2 3 4 3 3 3 3 4 4 2 1 0 1 1 1 2 2 2 3 3 4 5 5 6 7 8 8 9 10 11 11 12 13 13 14 15 15 15 15 16 15 16 15 15 14 14 13 13 14 17 18 18 17 18 18 17
Wind_Direction
348 350 353 354 352 352 355 1 1 357 356 360 353 337 315 332 359 17 349 347 333 280 83 72 50 45 32 329 245 257 290 287 304 317 304 280 268 255 275 295 289 305 322 313 324 341 315 286 304 320 317 315 322 347 349 328 319 281 267 287 221 204 264 269 283 289 269 264 251 222 229 242 249 252 252 254 257 257 259 266 272 269 260 256 256 255 255
346 349 353 355 353 352 355 1 3 359 359 358 346 333 334 337 308 266 359 357 339 277 36 33 30 35 11 307 117 200 244 297 318 314 305 310 292 272 282 292 276 298 316 298 303 324 301 285 312 320 311 314 325 320 309 308 305 278 279 331 178 205 266 281 298 312 301 260 183 188 215 236 249 252 247 247 252 257 263 266 268 264 257 254 254 257 256
343 347 353 356 354 352 355 2 4 360 358 0 352 324 304 312 264 202 20 22 28 70 46 14 13 23 351 330 20 327 250 277 315 309 296 279 274 279 267 228 287 298 307 298 291 281 258 280 313 313 299 307 316 309 299 289 282 271 254 272 265 263 280 289 300 310 314 306 298 303 277 263 270 267 258 255 253 252 256 259 255 253 254 254 253 256 258
340 345 354 357 354 353 355 1 5 1 358 0 353 313 309 331 349 337 1 41 53 87 67 17 12 18 348 332 354 340 336 349 330 309 293 257 254 278 260 234 294 295 307 314 303 269 249 270 293 298 299 309 314 309 303 291 277 259 225 232 259 281 274 272 272 272 284 293 295 305 305 287 281 279 272 265 257 252 253 254 251 255 261 258 250 253 261
338 345 356 359 355 355 356 359 5 4 1 1 350 308 326 341 348 359 343 348 36 70 59 25 21 18 341 341 356 340 331 342 7 321 278 315 311 285 252 222 247 315 339 320 305 266 259 270 280 289 296 306 313 311 305 292 258 222 214 220 238 274 273 272 266 257 260 270 277 286 288 280 278 280 278 273 265 256 250 248 251 257 263 259 253 255 261
339 346 355 358 355 356 357 359 4 4 5 7 353 313 9 11 13 44 349 308 351 14 8 2 357 338 305 325 336 323 327 348 2 338 297 296 287 266 227 211 213 45 5 316 299 297 295 287 285 297 307 314 320 319 312 298 191 191 211 218 228 270 278 280 277 268 263 264 268 269 266 263 267 271 273 274 271 263 254 251 250 250 253 259 262 263 262
340 347 352 354 354 358 359 358 1 5 11 18 3 348 32 25 15 97 9 293 327 344 333 322 311 295 276 274 307 320 324 339 349 333 300 294 266 217 238 245 223 263 285 267 276 297 308 303 297 310 317 317 321 319 310 298 159 195 233 239 239 268 282 284 283 277 274 271 267 263 258 256 258 260 263 268 270 267 262 257 253 251 253 258 263 265 264
339 345 348 351 353 359 1 356 357 4 14 28 26 22 33 17 1 359 285 275 289 286 291 298 292 260 222 285 348 329 312 321 331 314 280 282 263 203 260 286 289 291 286 261 247 250 269 283 287 301 310 308 311 313 304 308 243 247 262 262 242 245 277 292 290 279 277 270 256 250 249 253 258 261 264 268 271 269 263 258 255 253 254 255 257 262 264
335 341 344 348 351 357 1 356 353 3 15 27 35 39 46 42 29 345 302 292 225 254 276 291 293 315 28 340 350 334 310 322 326 310 271 257 261 267 294 304 305 296 275 247 244 248 258 274 281 286 289 286 284 282 280 295 302 287 280 281 259 246 275 289 285 279 280 277 264 253 248 254 261 265 269 270 268 268 266 261 255 250 252 256 255 256 260
330 336 340 344 349 353 357 356 354 3 16 26 25 33 37 24 99 36 306 294 186 294 314 287 292 350 20 335 324 313 308 319 319 313 286 238 256 275 294 300 303 295 280 275 282 287 287 284 283 282 275 269 269 266 263 271 276 274 276 283 278 271 279 286 287 284 286 295 296 264 256 267 264 266 287 289 276 274 277 274 265 255 251 254 253 250 258
326 332 334 339 347 350 352 354 359 6 17 30 30 26 22 1 343 294 295 286 228 333 323 309 327 17 357 314 310 305 300 302 298 288 277 268 275 282 289 292 290 285 290 305 315 310 298 285 277 273 268 263 258 254 256 258 255 255 262 272 276 276 274 280 288 284 290 304 311 267 266 282 271 320 326 308 291 285 284 282 278 269 258 255 257 259 264
322 328 330 335 340 346 350 352 360 9 16 25 28 25 27 358 324 306 303 304 305 298 313 334 351 324 308 306 307 303 300 302 294 276 270 279 286 285 281 278 271 273 303 316 314 307 298 285 271 254 247 251 248 242 246 250 250 248 237 238 256 268 271 280 282 266 287 302 306 290 284 285 193 328 302 289 283 283 284 283 282 279 275 270 268 267 269
314 320 325 330 332 339 349 349 354 8 15 19 23 20 13 346 316 314 322 304 299 317 323 317 286 292 307 309 302 296 294 293 286 275 270 273 279 281 273 258 259 280 308 315 309 304 301 297 285 249 228 226 223 223 234 245 261 261 203 202 229 261 275 284 283 270 288 306 312 304 294 259 168 306 295 281 281 284 287 284 273 272 284 286 281 279 277
306 314 319 324 327 333 343 343 343 358 9 18 23 5 353 342 310 321 332 297 296 316 313 297 301 319 318 315 308 301 293 290 286 278 267 264 273 279 273 263 272 289 305 309 303 297 298 313 319 301 252 216 205 209 218 229 298 306 207 195 208 241 267 286 287 269 287 309 310 301 298 303 57 326 282 257 259 265 278 285 270 254 281 289 286 285 285
299 307 308 313 322 325 329 335 334 341 358 16 23 0 345 335 300 309 318 297 301 302 292 325 348 334 319 317 321 319 312 310 308 294 271 248 257 269 273 282 290 294 295 293 294 300 305 316 322 330 356 356 320 296 336 32 47 292 252 204 198 219 245 270 287 274 286 301 308 315 321 342 23 356 328 292 270 259 247 265 278 225 230 261 269 273 276
290 297 300 305 314 315 313 318 320 326 342 359 11 355 329 291 250 275 279 284 293 293 337 360 340 312 302 309 321 326 323 323 326 317 289 246 276 290 297 303 297 288 283 276 274 290 299 306 316 327 349 351 336 312 315 342 348 318 271 201 198 218 237 250 264 271 295 311 319 322 320 353 17 351 340 332 318 298 243 247 270 192 207 239 252 258 262
281 289 292 296 303 305 299 299 304 311 321 332 349 352 314 286 266 263 264 259 262 273 296 316 309 291 301 314 318 324 322 312 313 315 302 303 310 310 316 320 300 265 270 286 278 282 303 314 320 330 356 1 341 315 314 335 338 336 339 286 219 250 281 277 281 300 318 325 325 319 319 18 7 347 339 334 326 315 291 313 318 301 257 242 230 239 250
276 281 285 287 294 298 290 282 286 292 298 311 334 337 297 287 270 240 240 264 273 270 284 310 302 295 307 315 310 311 312 302 300 301 289 292 307 314 322 333 325 248 262 295 291 293 322 337 340 337 344 1 341 317 326 337 326 334 346 340 342 358 337 315 326 336 334 331 328 332 352 45 358 343 338 332 320 310 334 335 321 317 316 304 258 255 260
271 276 279 280 285 291 288 275 271 277 285 297 320 327 301 288 266 231 229 261 264 258 283 300 290 282 287 293 288 287 288 279 283 301 298 302 349 329 305 294 288 281 291 302 300 309 326 347 13 333 317 351 355 326 325 334 327 338 344 339 347 355 334 330 349 346 337 333 334 340 355 44 355 344 339 335 330 327 330 320 307 316 328 336 334 315 303
267 270 271 273 279 285 285 270 259 268 280 283 298 320 311 295 264 233 232 250 268 277 281 279 270 271 281 282 278 281 283 267 265 292 301 314 352 333 298 213 137 317 312 315 321 351 348 344 1 339 315 344 352 323 317 328 331 346 344 340 354 353 328 340 358 347 329 335 346 348 343 352 355 348 341 342 344 331 320 317 321 331 337 337 333 325 319
264 265 264 268 273 277 277 267 253 256 272 276 282 307 315 305 267 238 235 242 261 282 283 277 280 284 284 278 272 271 269 264 267 287 302 309 326 323 313 345 339 324 346 345 319 338 358 338 343 338 318 322 329 323 326 329 331 27 343 327 344 14 348 340 348 348 336 340 343 332 322 335 348 348 329 321 327 330 330 329 329 334 335 333 331 329 327
261 262 264 267 269 268 268 263 251 244 256 268 270 279 301 303 278 253 239 238 244 254 268 282 290 286 277 272 266 259 253 255 262 269 281 292 294 286 291 306 304 300 338 330 309 326 343 330 332 327 315 316 325 324 323 319 319 355 350 332 347 22 8 327 318 328 330 305 280 288 311 329 336 332 319 318 326 337 338 330 328 332 333 330 327 327 328
258 259 261 264 264 262 261 258 250 239 244 260 260 255 279 297 282 263 259 257 257 262 268 277 285 283 272 266 257 247 242 244 249 251 252 259 273 272 263 272 298 327 292 285 311 337 331 322 330 323 316 323 322 315 314 314 318 340 348 343 5 20 1 323 312 328 330 294 271 298 324 329 324 322 322 323 330 338 334 329 332 331 323 322 323 324 324
256 256 259 261 259 256 255 255 249 237 235 248 255 254 267 283 275 267 269 267 276 287 275 269 275 283 281 275 249 231 228 230 235 238 235 234 243 260 260 242 256 279 262 259 294 311 307 304 303 294 302 317 317 314 319 321 329 342 338 330 360 17 357 336 333 341 338 322 328 342 339 326 318 323 329 331 335 338 335 334 334 324 318 322 324 324 325
254 254 256 258 255 253 252 251 248 241 236 242 250 251 256 265 267 266 264 264 279 302 299 287 279 280 284 283 270 261 250 240 235 231 225 223 227 241 284 20 278 289 319 323 282 281 284 288 286 286 298 305 301 306 312 314 325 331 330 336 358 349 339 340 344 340 327 318 336 344 332 313 311 327 336 337 337 336 334 334 330 323 323 327 328 330 333
254 254 254 254 253 250 249 248 247 244 240 240 245 249 254 263 266 255 255 268 277 269 267 281 284 284 290 291 287 284 271 248 234 225 222 222 224 234 254 271 262 267 284 283 279 285 283 279 278 282 290 296 295 298 301 307 312 307 311 0 4 325 323 337 332 322 319 324 338 342 331 309 312 330 337 338 337 335 334 332 329 328 331 334 333 336 338
253 254 252 251 251 249 248 247 246 242 240 240 245 253 260 266 264 250 243 249 262 266 263 268 284 299 301 297 294 290 259 233 228 224 223 222 222 228 239 249 253 257 260 261 269 272 264 266 267 266 277 297 301 287 282 289 299 295 309 16 6 333 329 341 328 320 327 332 335 340 334 310 311 325 331 334 336 337 336 331 330 332 335 334 332 332 335
251 252 250 249 248 247 247 245 241 238 240 240 246 258 266 268 266 259 248 237 235 256 283 288 293 302 303 297 292 283 250 232 230 227 225 224 221 221 227 235 242 247 249 253 257 253 251 260 269 267 270 287 287 275 270 272 278 278 10 33 19 1 343 337 327 311 309 314 323 331 324 306 306 317 324 330 335 338 335 333 336 336 332 328 328 328 332
251 251 250 248 246 244 243 242 237 233 233 236 247 268 277 273 267 258 246 233 232 245 276 294 287 291 303 307 303 290 255 233 232 233 233 229 221 217 220 227 233 235 237 241 249 260 263 264 273 276 270 275 283 280 281 284 280 285 60 33 17 9 347 331 321 306 300 306 318 323 316 306 306 313 319 327 336 338 333 333 337 335 327 324 325 326 329
254 253 251 248 245 241 239 237 232 226 224 226 239 270 282 274 252 230 217 212 217 229 265 295 284 293 308 305 296 286 269 255 248 240 235 230 222 215 214 220 228 227 227 230 235 253 269 268 264 261 248 242 262 275 285 292 294 57 47 17 358 349 340 331 322 314 308 310 316 316 310 306 308 312 318 328 337 338 332 330 332 331 328 326 324 325 334
257 255 252 250 246 239 233 229 226 221 216 212 205 223 279 237 144 122 146 182 194 209 244 266 271 291 297 274 262 281 294 289 271 249 232 225 224 215 207 212 221 216 217 231 234 247 267 265 253 258 235 202 210 262 289 292 295 7 15 360 347 338 335 330 323 318 315 316 318 315 310 311 320 325 326 331 337 338 334 330 332 332 328 325 326 333 342
260 258 254 252 250 240 227 222 221 217 213 212 209 210 234 243 213 282 96 173 188 210 255 280 282 292 303 282 276 289 294 285 267 245 216 199 201 201 195 203 218 211 212 232 236 238 252 243 243 273 260 176 185 264 292 303 331 343 345 342 338 335 333 329 324 324 327 328 327 323 320 326 333 331 327 328 334 339 338 334 333 333 330 330 341 350 350
259 258 253 251 247 235 221 218 220 218 218 227 233 236 244 257 267 271 252 203 204 226 238 274 282 274 290 303 299 300 302 285 256 224 192 175 172 177 182 193 213 209 204 217 229 233 240 228 234 265 258 173 201 272 298 65 8 338 332 333 335 335 333 329 326 330 335 334 331 327 323 324 326 324 324 329 334 339 341 339 337 337 338 343 352 353 349
255 254 249 244 237 224 213 210 213 215 221 236 246 248 250 252 257 256 237 215 223 246 223 244 276 275 288 295 283 97 16 318 279 298 144 167 169 177 176 173 190 206 200 207 231 242 234 236 245 247 219 179 271 290 45 20 351 340 336 337 338 336 334 334 334 336 336 331 327 324 320 320 322 325 330 337 341 342 344 346 348 347 346 348 351 348 345
250 245 238 234 223 208 200 199 205 212 222 233 241 250 255 252 252 245 228 211 210 234 212 219 249 276 298 292 264 86 14 319 278 320 347 168 178 201 189 171 194 212 189 195 235 245 234 245 261 245 196 86 42 30 347 333 337 341 341 341 343 342 340 338 335 333 332 329 327 329 331 331 333 336 338 341 344 344 344 348 352 353 350 347 345 343 343
242 235 226 215 198 187 186 197 205 208 218 227 232 243 253 257 253 232 216 210 216 236 244 225 227 243 280 287 295 354 340 308 267 274 285 215 201 212 205 214 232 197 154 189 236 241 240 256 260 237 92 84 66 23 342 328 332 339 341 342 345 342 337 335 331 328 329 330 331 337 341 340 340 341 340 340 342 345 346 348 351 353 352 347 342 341 340
229 214 192 177 172 172 183 203 207 209 216 224 230 236 235 231 221 207 204 209 220 231 245 259 245 243 258 270 288 324 318 301 315 312 274 279 295 221 211 243 258 159 177 235 243 236 250 230 148 91 80 96 79 15 354 337 332 337 338 338 341 339 336 335 332 330 332 334 338 345 347 345 344 344 341 339 342 346 347 349 350 350 348 344 340 338 337
200 181 166 157 156 168 200 207 207 209 208 204 189 154 153 152 148 178 188 199 215 218 222 243 247 249 250 247 253 285 309 321 327 319 296 325 319 251 217 246 261 187 257 267 248 138 182 155 115 99 104 108 75 17 360 347 337 339 339 337 339 341 339 337 338 340 341 342 342 344 345 343 343 342 338 337 339 342 344 345 344 343 343 343 340 337 336
174 163 158 158 162 159 161 180 187 184 181 179 173 155 160 177 190 192 181 185 211 208 204 224 240 241 234 235 245 254 258 276 290 293 306 336 328 297 284 302 329 269 276 278 142 146 229 202 128 126 133 107 55 12 360 351 344 347 347 342 344 345 342 339 341 344 345 340 335 335 336 336 336 335 333 333 334 337 340 342 342 342 343 342 341 339 338
164 153 148 160 156 129 129 146 154 149 146 153 160 165 198 206 202 193 182 193 212 212 201 216 236 230 223 235 248 228 191 221 284 309 315 316 315 300 299 306 330 286 281 275 139 163 258 248 176 155 140 89 34 9 2 357 353 355 353 348 349 349 347 344 342 341 340 338 335 334 335 334 333 333 334 334 333 335 339 339 340 341 342 342 342 342 340
163 154 148 145 139 135 136 139 138 128 120 136 173 191 209 207 199 203 212 214 221 222 205 208 224 219 212 224 239 223 190 205 281 304 288 276 245 269 285 296 315 277 278 284 95 161 263 259 222 155 110 66 26 6 360 355 355 357 353 349 350 349 347 345 344 343 342 341 340 339 338 337 337 337 337 336 335 335 336 337 337 340 342 342 341 341 342
176 159 141 129 127 133 140 141 133 126 128 159 195 211 213 200 188 199 218 225 232 228 194 200 218 223 192 198 216 224 206 192 220 251 258 254 218 262 284 296 281 259 271 328 43 255 258 258 223 120 92 49 11 2 356 352 352 350 346 346 347 347 345 344 344 344 344 344 343 342 341 339 340 340 339 339 338 337 336 338 339 340 341 340 339 341 344
154 139 126 116 118 136 153 162 172 179 179 186 201 203 199 198 204 210 214 220 229 217 184 181 191 181 156 180 202 211 191 194 229 247 256 261 256 267 276 274 264 264 288 325 275 263 271 285 77 106 93 30 360 359 353 346 344 342 340 341 342 341 342 342 341 341 343 344 344 343 343 341 341 341 340 340 341 339 339 342 343 341 339 339 340 343 346
130 120 109 101 119 160 174 171 171 190 201 200 197 198 199 198 201 204 199 193 196 195 183 180 190 191 178 176 192 200 187 194 222 234 241 246 253 262 266 268 274 291 298 275 265 270 288 42 88 93 79 25 357 354 346 340 340 339 337 338 340 340 340 342 340 339 342 343 343 344 344 343 343 342 342 343 343 342 342 343 344 342 342 341 342 345 348
121 109 119 132 140 165 186 177 173 199 212 206 201 209 211 201 196 200 197 179 168 173 174 177 192 196 176 157 189 225 205 179 193 218 237 255 261 264 274 285 295 297 285 269 262 262 217 127 114 80 36 9 355 348 342 339 340 337 333 334 337 338 339 340 340 340 342 342 342 343 343 343 344 344 343 343 344 345 345 346 345 345 345 345 345 347 348
109 128 147 146 166 190 197 188 183 197 211 207 201 206 212 212 209 199 179 162 159 167 167 168 184 196 183 168 184 221 200 197 222 234 245 264 269 273 291 298 281 270 264 259 257 256 177 116 113 74 10 356 346 340 337 334 331 331 330 331 334 336 337 338 338 339 341 341 341 342 343 343 344 344 343 343 345 347 349 350 349 348 349 349 348 348 348
87 150 154 168 181 186 204 212 201 191 197 203 204 207 214 224 225 175 148 161 167 150 138 142 172 207 204 198 228 233 208 218 247 254 246 259 270 278 283 272 263 254 256 266 269 252 115 114 113 47 1 345 331 327 328 327 326 329 331 331 331 333 335 335 337 339 340 340 340 342 343 342 342 343 344 344 345 349 352 354 353 353 353 353 350 350 351
125 159 181 197 179 187 205 202 183 161 176 200 204 200 200 206 199 164 147 152 156 151 153 163 184 201 195 193 239 252 233 213 241 251 243 256 272 271 251 249 252 244 250 271 294 67 101 110 80 5 340 328 322 322 324 326 329 330 331 331 331 332 333 335 338 339 339 339 340 341 342 341 340 341 343 343 344 348 353 356 357 357 357 356 354 354 357
122 151 188 212 197 202 197 182 181 191 190 185 191 191 189 196 194 166 148 150 160 162 162 167 204 222 211 185 225 250 238 215 232 247 232 229 246 251 248 255 260 259 248 250 41 72 85 84 357 307 303 315 323 323 323 326 329 329 328 329 331 332 333 335 337 337 337 338 338 339 339 339 339 340 341 341 342 344 348 353 358 360 360 359 357 356 358
144 181 215 203 193 186 171 175 192 197 184 176 191 193 190 192 183 159 150 160 160 150 144 157 203 228 224 195 222 240 234 225 243 250 242 236 238 236 241 257 266 274 283 96 79 40 3 331 307 299 304 319 324 322 322 325 324 323 326 329 330 331 332 334 335 335 336 337 336 336 337 339 340 340 339 337 337 337 340 348 358 2 2 1 0 358 358
183 221 232 213 201 182 162 175 198 201 190 187 190 187 187 191 180 161 156 166 166 168 188 203 199 198 204 209 223 234 216 206 244 249 247 244 232 221 240 260 280 336 68 124 278 318 320 321 318 312 309 312 316 319 323 322 318 320 324 327 328 330 331 332 334 335 336 336 336 335 336 338 339 338 336 335 335 337 340 345 352 357 0 2 2 359 357
187 213 195 171 194 201 193 202 215 202 187 184 182 180 184 185 164 145 152 177 187 193 202 197 183 198 215 217 218 209 193 208 233 242 240 232 224 235 258 282 322 26 315 272 289 307 310 316 319 308 300 304 313 318 319 316 315 318 323 325 327 329 329 330 333 335 334 335 337 336 335 335 336 336 336 338 340 342 341 342 344 348 353 359 1 359 357